Terminal Aerodrome Forecast
Issued by NWS

Home | Current Version | Previous Version | Text Only | Print | Product List | Glossary On
Versions: 1 2 3 4 5 6 7 8 9 10 11 12 13 14 15 16 17 18 19 20 21 22 23 24 25 26 27 28 29 30 31 32 33 34 35 36 37 38 39 40 41 42 43 44 45 46 47 48 49 50
000
FTUS46 KLOX 211746
TAFLAX
TAF
KLAX 211746Z 2118/2224 06006KT P6SM SKC
     FM211930 VRB05KT P6SM SCT025
     FM212100 25008KT P6SM FEW035
     FM220300 VRB03KT P6SM SCT025
     FM220800 09008KT P6SM BKN025
     FM221500 11006KT P6SM SCT025
     FM221930 VRB05KT P6SM FEW025
     FM222100 26008KT P6SM SKC=

USA.gov is the U.S. government's official web portal to all federal, state and local government web resources and services.